الكل
Enua Airport (Atiu (Enua Manu)) AIU حالة الطقس
|
Atiu (Enua Manu) (AIU / NCAT)
سماء صافية
رياح هادئة |
|
21 °C |
There is no TAF data available at AIU or any nearby airports.
محفوظات أحدث تقرير روتيني عن حالة الطقس من أجل الطيران (الميتار )AIU
| Date | Time (-10) | Flight Rules | Wind Dir. | Speed | Type | Height AGL (ft) | Visibility | Temp (°C) | Temp (°F) | Dew Point (°C) | Dew Point (°F) | Rel. Humid. | Pressure | Density Altitude | Remarks |
|---|---|---|---|---|---|---|---|---|---|---|---|---|---|---|---|
| 06-سبت | 04:00 | n/a | 180° | 2 kt | Missing | 21° | 69° | 21° | 69° | 100% | 1011 mb | 836 ft | |||
| 06-سبت | 03:30 | n/a | 170° | 1 kt | Missing | 21° | 69° | 21° | 69° | 100% | 1012 mb | 807 ft | |||
| 06-سبت | 03:00 | n/a | 150° | 1 kt | Missing | 21° | 69° | 21° | 69° | 100% | 1012 mb | 807 ft | |||
| 06-سبت | 02:30 | n/a | 170° | 1 kt | Missing | 21° | 69° | 21° | 69° | 100% | 1012 mb | 807 ft | |||
| 06-سبت | 02:00 | n/a | 250° | 1 kt | Missing | 21° | 69° | 21° | 69° | 100% | 1012 mb | 807 ft | |||
| 06-سبت | 01:30 | n/a | 220° | 1 kt | Missing | 21° | 69° | 21° | 69° | 100% | 1013 mb | 777 ft | |||
| 06-سبت | 01:00 | n/a | 290° | 1 kt | Missing | 21° | 69° | 21° | 69° | 100% | 1013 mb | 777 ft | |||
| 06-سبت | 00:30 | n/a | 320° | 1 kt | Missing | 21° | 69° | 21° | 69° | 100% | 1013 mb | 777 ft | |||
| 06-سبت | 00:00 | n/a | 290° | 1 kt | Missing | 21° | 69° | 20° | 68° | 94% | 1013 mb | 777 ft | |||
| 05-سبت | 23:30 | n/a | 250° | 1 kt | Missing | 21° | 69° | 21° | 69° | 100% | 1013 mb | 777 ft | |||
| 05-سبت | 23:00 | n/a | 320° | 1 kt | Missing | 22° | 71° | 21° | 69° | 94% | 1014 mb | 868 ft | |||
| 05-سبت | 22:30 | n/a | 60° | 1 kt | Missing | 21° | 69° | 20° | 68° | 94% | 1014 mb | 748 ft | |||
| 05-سبت | 22:00 | MVFR | 200° | 2 kt | 6000 meters | 23° | 73° | 22° | 71° | 94% | 1014 mb | 988 ft | |||
| 05-سبت | 21:30 | n/a | 190° | 3 kt | Missing | 23° | 73° | 21° | 69° | 89% | 1014 mb | 988 ft | |||
| 05-سبت | 21:00 | n/a | 30° | 1 kt | Missing | 24° | 75° | 23° | 73° | 94% | 1014 mb | 1,108 ft | |||
| 05-سبت | 20:30 | n/a | 60° | 1 kt | Missing | 24° | 75° | 23° | 73° | 94% | 1013 mb | 1,137 ft | |||
| 05-سبت | 20:00 | n/a | 20° | 1 kt | Missing | 24° | 75° | 23° | 73° | 94% | 1013 mb | 1,137 ft | |||
| 05-سبت | 19:30 | n/a | 20° | 2 kt | Missing | 24° | 75° | 22° | 71° | 89% | 1013 mb | 1,137 ft | |||
| 05-سبت | 19:00 | n/a | 60° | 2 kt | Missing | 24° | 75° | 22° | 71° | 89% | 1013 mb | 1,137 ft | |||
| 05-سبت | 18:30 | n/a | 30° | 3 kt | Missing | 24° | 75° | 22° | 71° | 89% | 1012 mb | 1,167 ft | |||
| 05-سبت | 18:00 | n/a | 40° | 3 kt | Missing | 25° | 77° | 22° | 71° | 83% | 1012 mb | 1,287 ft | |||
| 05-سبت | 17:30 | n/a | 40° | 3 kt | Missing | 25° | 77° | 23° | 73° | 89% | 1012 mb | 1,287 ft | |||
| 05-سبت | 17:00 | n/a | 40° | 4 kt | Missing | 25° | 77° | 23° | 73° | 89% | 1012 mb | 1,287 ft | |||
| 05-سبت | 16:30 | n/a | 40° | 4 kt | Missing | 26° | 78° | 23° | 73° | 84% | 1011 mb | 1,436 ft |
تسجيل الدخول
| مُتصفحك غير مُدعَّم. قم بترقية متصفحك |
